Mesa, AZ

10:16 AM MST on February 20, 2017 (GMT -0700)
Phoenix-Mesa Gateway Airport

Weather History for KIWA - January, 2013

Change the Weather History Date:

Monday, January 21, 2013

  Actual Average Record
Temperature  
Mean Temperature 60 °F -  
Max Temperature 78 °F 65 °F 82 °F (2009)
Min Temperature 41 °F 42 °F 32 °F (2006)
Degree Days  
Heating Degree Days 6    
Growing Degree Days 10 (Base 50)    
Moisture  
Dew Point 26 °F    
Average Humidity 37    
Maximum Humidity 57    
Minimum Humidity 12    
Precipitation  
Precipitation 0.00 in - - ()
Sea Level Pressure  
Sea Level Pressure 30.06 in    
Wind  
Wind Speed 4 mph (ESE)    
Max Wind Speed 9 mph    
Max Gust Speed -    
Visibility 12 miles    
Events      
Averages and records for this station are not official NWS values.
T = Trace of Precipitation, MM = Missing Value Source: NWS Daily Summary

Daily Weather History Graph

Daily Weather History Graph

Search for Another Location

Airport or City:

Trip Planner

Search our weather history database for the weather conditions in past years. The results will help you decide how hot, cold, wet, or windy it might be!

Date:

Astronomy

Jan. 21, 2013 Rise Set
Actual Time 7:28 AM MST 5:48 PM MST
Civil Twilight 7:01 AM MST 6:14 PM MST
Nautical Twilight 6:31 AM MST 6:44 PM MST
Astronomical Twilight 6:01 AM MST 7:14 PM MST
Moon 1:31 PM MST (1/21) 2:59 AM MST (1/21)
Length of Visible Light 11h 12m
Length of Day
10h 19m
Waxing Gibbous, 75% of the Moon is Illuminated
Jan 21
Waxing Gibbous
Jan 26
Full
Feb 3
Last Quarter
Feb 10
New
Feb 17
First Quarter

Hourly Weather History & Observations

Time (MST) Temp. Windchill Dew Point Humidity Pressure Visibility Wind Dir Wind Speed Gust Speed Precip Events Conditions
12:15 AM 46.4 °F 42.4 °F 26.6 °F 46% 30.07 in 10.0 mi East 8.1 mph - N/A   Clear
12:35 AM 46.4 °F 42.4 °F 26.6 °F 46% 30.06 in 10.0 mi East 8.1 mph - N/A   Clear
12:55 AM 46.4 °F 42.4 °F 26.6 °F 46% 30.06 in 10.0 mi ESE 8.1 mph - N/A   Clear
1:15 AM 46.4 °F 42.9 °F 26.6 °F 46% 30.06 in 10.0 mi ESE 6.9 mph - N/A   Clear
1:35 AM 46.4 °F 42.4 °F 26.6 °F 46% 30.06 in 10.0 mi ESE 8.1 mph - N/A   Clear
1:55 AM 46.4 °F - 24.8 °F 43% 30.06 in 10.0 mi Calm Calm - N/A   Clear
2:15 AM 50.0 °F - 26.6 °F 40% 30.06 in 10.0 mi ESE 3.5 mph - N/A   Clear
2:35 AM 46.4 °F - 24.8 °F 43% 30.06 in 10.0 mi Calm Calm - N/A   Clear
2:55 AM 44.6 °F - 24.8 °F 46% 30.06 in 10.0 mi Calm Calm - N/A   Clear
3:15 AM 42.8 °F - 26.6 °F 53% 30.06 in 10.0 mi Calm Calm - N/A   Clear
3:35 AM 44.6 °F - 26.6 °F 49% 30.06 in 10.0 mi Calm Calm - N/A   Clear
3:55 AM 44.6 °F - 26.6 °F 49% 30.05 in 10.0 mi Calm Calm - N/A   Clear
4:15 AM 42.8 °F - 26.6 °F 53% 30.05 in 10.0 mi Calm Calm - N/A   Clear
4:35 AM 42.8 °F - 26.6 °F 53% 30.05 in 10.0 mi Calm Calm - N/A   Clear
4:55 AM 42.8 °F - 26.6 °F 53% 30.05 in 10.0 mi Calm Calm - N/A   Clear
5:15 AM 42.8 °F - 26.6 °F 53% 30.05 in 10.0 mi Calm Calm - N/A   Clear
5:47 AM 41.0 °F 39.0 °F 26.6 °F 57% 30.06 in 20.0 mi East 3.5 mph - N/A   Scattered Clouds
6:47 AM 41.0 °F 39.0 °F 26.6 °F 57% 30.07 in 20.0 mi ESE 3.5 mph - N/A   Scattered Clouds
7:47 AM 42.8 °F 41.1 °F 26.6 °F 53% 30.08 in 45.0 mi Variable 3.5 mph - N/A   Scattered Clouds
8:47 AM 46.4 °F 44.3 °F 26.6 °F 46% 30.10 in 45.0 mi SSE 4.6 mph - N/A   Scattered Clouds
9:47 AM 53.6 °F - 26.6 °F 35% 30.12 in 45.0 mi Variable 3.5 mph - N/A   Scattered Clouds
10:47 AM 60.8 °F - 26.6 °F 27% 30.13 in 45.0 mi SSW 4.6 mph - N/A   Partly Cloudy
11:47 AM 64.4 °F - 24.8 °F 22% 30.12 in 35.0 mi SW 4.6 mph - N/A   Partly Cloudy
12:47 PM 71.6 °F - 19.4 °F 14% 30.08 in 35.0 mi Calm Calm - N/A   Partly Cloudy
1:47 PM 73.4 °F - 19.4 °F 13% 30.04 in 35.0 mi West 6.9 mph - N/A   Partly Cloudy
2:47 PM 77.0 °F - 19.4 °F 12% 30.03 in 45.0 mi WNW 8.1 mph - N/A   Partly Cloudy
3:47 PM 78.8 °F - 21.2 °F 12% 30.02 in 45.0 mi NNW 4.6 mph - N/A   Partly Cloudy
4:47 PM 78.8 °F - 21.2 °F 12% 30.02 in - NW 6.9 mph - N/A   Clear
5:47 PM 73.4 °F - 23.0 °F 15% 30.02 in 20.0 mi West 3.5 mph - N/A   Clear
6:47 PM 69.8 °F - 24.8 °F 18% 30.03 in 20.0 mi Variable 3.5 mph - N/A   Clear
7:47 PM 60.8 °F - 28.4 °F 29% 30.04 in 20.0 mi West 5.8 mph - N/A   Clear
7:55 PM 62.6 °F - 28.4 °F 27% 30.04 in 10.0 mi NW 5.8 mph - N/A   Clear
8:15 PM 62.6 °F - 24.8 °F 24% 30.04 in 10.0 mi NNW 8.1 mph - N/A   Clear
8:35 PM 62.6 °F - 26.6 °F 26% 30.05 in 10.0 mi NNW 9.2 mph - N/A   Clear
8:47 PM 62.6 °F - 24.8 °F 24% 30.05 in 20.0 mi North 6.9 mph - N/A   Clear
8:55 PM 60.8 °F - 26.6 °F 27% 30.05 in 10.0 mi North 5.8 mph - N/A   Clear
9:15 PM 60.8 °F - 26.6 °F 27% 30.05 in 10.0 mi Calm Calm - N/A   Clear
9:35 PM 51.8 °F - 28.4 °F 41% 30.06 in 10.0 mi Calm Calm - N/A   Clear
9:55 PM 53.6 °F - 28.4 °F 38% 30.07 in 10.0 mi SE 5.8 mph - N/A   Clear
10:15 PM 51.8 °F - 28.4 °F 41% 30.08 in 10.0 mi SSE 3.5 mph - N/A   Clear
10:35 PM 51.8 °F - 30.2 °F 44% 30.08 in 10.0 mi SE 3.5 mph - N/A   Clear
10:55 PM 51.8 °F - 28.4 °F 41% 30.08 in 10.0 mi East 3.5 mph - N/A   Clear
11:15 PM 51.8 °F - 30.2 °F 44% 30.09 in 10.0 mi East 3.5 mph - N/A   Clear
11:35 PM 51.8 °F - 28.4 °F 41% 30.09 in 10.0 mi Calm Calm - N/A   Clear